Simultaneous Nadir Overpasses (SNOs) Predictions

Prediction of SNOs between GOES-16 and METOP-C Satellite Orbit:

Table of predicted SNOs for the next 14.0 days since TLE Epoch: 8/22/2020
Index Date Time (GOES-16) GOES-16 Lat,Lon METOP-C Lat,Lon Distance(km) Time Diff (sec)
1 08/22/2020 02:47:49 0.00, -75.18 0.00, -78.76 398.11 80
2 08/23/2020 02:24:16 0.01, -75.19 0.37, -73.60 180.97 80
3 08/24/2020 14:45:47 -0.00, -75.21 0.66, -78.16 336.03 80
4 08/25/2020 14:22:27 -0.01, -75.21 -0.48, -73.17 233.85 80
5 08/27/2020 02:44:06 -0.00, -75.21 -0.59, -77.75 289.68 80
6 08/28/2020 02:20:47 0.00, -75.22 0.55, -72.76 280.41 80
7 08/29/2020 14:42:17 0.00, -75.25 0.47, -77.32 235.67 80
8 08/30/2020 14:18:58 -0.00, -75.26 -0.67, -72.33 334.84 80
9 09/01/2020 02:40:38 -0.01, -75.27 -0.34, -76.92 187.44 80
10 09/02/2020 02:17:18 0.00, -75.29 0.74, -71.92 383.60 80
11 09/03/2020 14:38:48 0.00, -75.33 0.27, -76.48 130.84 80
12 09/04/2020 14:15:28 -0.00, -75.36 -0.87, -71.49 440.66 80
